Вернуться в каталог

COSMOS 1223

АктивенВоенныеHEO
NORAD 12078·PAYLOAD·🇷🇺 Russia

Запущен Nov 27, 1980 с Plesetsk Cosmodrome

Loading…

Ближайшие Пролёты (ближайшие 24 часа)

TLE

СвежийSource: Space-Track

Эпоха: Sep 5, 2026, 03:12 UTC

1 12078U 80095A   26248.13382162  .00000006  00000-0  00000-0 0  9994
2 12078  73.4438  43.1031 4681613 299.3627 297.9076  2.00666566335231

Отслеживайте COSMOS 1223 в реальном времени с AllMySat

Download on the App Store